Historique des stations

Station météo de Culan

Altitude de la station : 276 m







Données météorologiques pour le 14/08/2022
Date
Heure
Températures Humidité Point de rosée Vitesse
du vent
Direction Rafales Windchill Pression Pluviométrie
Cumul
Date
Heure
Températures Humidité Point de rosée Vitesse
du vent
Direction Rafales Windchill Pression Pluviométrie
Cumul
14/08/2022 05:0319.6 °C91 %18.3 °C10 km/hO18 km/h19.4 1012 hPa2.2 mm
14/08/2022 05:0019.7 °C90 %18.3 °C-OSO40 km/h19.4 1012 hPa2 mm
14/08/2022 04:4820.0 °C88 %17.8 °C-OSO21 km/h20.0 1012 hPa1.4 mm
14/08/2022 04:4520.2 °C88 %18.3 °C-OSO40 km/h20.0 1011 hPa1.2 mm
14/08/2022 04:3320.9 °C84 %18.3 °C-OSO23 km/h21.1 1010 hPa-
14/08/2022 04:3021.0 °C83 %17.8 °C-ONO40 km/h21.1 1011 hPa-
14/08/2022 04:1721.5 °C81 %18.3 °C-O19 km/h21.7 1010 hPa-
14/08/2022 04:1521.6 °C81 %18.3 °C-O40 km/h21.7 1010 hPa-
14/08/2022 04:0322.1 °C78 %18.3 °C-O31 km/h22.2 1010 hPa-
14/08/2022 04:0022.2 °C78 %18.3 °C-O40 km/h22.2 1010 hPa-
14/08/2022 03:4822.9 °C75 %18.3 °C10 km/hO40 km/h22.8 1010 hPa-
14/08/2022 03:4523.1 °C74 %18.3 °C2 km/hOSO40 km/h23.3 1010 hPa-
14/08/2022 03:3323.0 °C64 %15.6 °C-O34 km/h22.8 1009 hPa-
14/08/2022 03:3022.6 °C64 %15.6 °C-O34 km/h22.8 1009 hPa-
14/08/2022 03:1819.7 °C62 %12.2 °C---19.4 1008 hPa-
14/08/2022 03:1519.7 °C62 %12.2 °C-S5 km/h19.4 1007 hPa-
14/08/2022 03:0319.4 °C62 %11.7 °C---19.4 1007 hPa-
14/08/2022 03:0019.4 °C61 %11.7 °C-S5 km/h19.4 1007 hPa-
14/08/2022 02:5119.5 °C62 %11.7 °C---19.4 1007 hPa-
14/08/2022 02:4519.5 °C62 %11.7 °C-S5 km/h19.4 1007 hPa-
14/08/2022 02:3719.6 °C61 %11.7 °C---19.4 1007 hPa-
14/08/2022 02:3019.6 °C62 %12.2 °C-S5 km/h19.4 1007 hPa-
14/08/2022 02:2119.5 °C62 %11.7 °C---19.4 1008 hPa-
14/08/2022 02:1519.4 °C62 %11.7 °C-S5 km/h19.4 1008 hPa-
14/08/2022 02:0619.6 °C62 %12.2 °C---19.4 1008 hPa-
14/08/2022 02:0019.6 °C62 %12.2 °C-S5 km/h19.4 1008 hPa-
14/08/2022 01:5119.7 °C62 %12.2 °C---19.4 1008 hPa-
14/08/2022 01:4519.8 °C61 %12.2 °C-S5 km/h20.0 1008 hPa-
14/08/2022 01:3319.9 °C61 %12.2 °C-S3 km/h20.0 1008 hPa-
14/08/2022 01:3019.9 °C61 %12.2 °C-SSE5 km/h20.0 1008 hPa-
14/08/2022 01:1820.1 °C60 %12.2 °C---20.0 1008 hPa-
14/08/2022 01:1520.0 °C60 %11.7 °C-SE5 km/h20.0 1008 hPa-
14/08/2022 01:0320.0 °C61 %12.2 °C---20.0 1008 hPa-
14/08/2022 01:0120.1 °C61 %12.2 °C-SE5 km/h20.0 1008 hPa-
14/08/2022 00:5120.3 °C61 %12.2 °C---20.6 1009 hPa-
14/08/2022 00:4620.3 °C61 %12.2 °C-SE5 km/h20.6 1009 hPa-
14/08/2022 00:3620.6 °C60 %12.2 °C---20.6 1009 hPa-
14/08/2022 00:3120.7 °C60 %12.8 °C---20.6 1009 hPa-
14/08/2022 00:2420.8 °C59 %12.2 °C---21.1 1009 hPa-
14/08/2022 00:1621.0 °C59 %12.8 °C---21.1 1009 hPa-
14/08/2022 00:0721.3 °C58 %12.8 °C---21.1 1009 hPa-
14/08/2022 00:0121.5 °C57 %12.8 °C---21.7 1009 hPa-


Minima :

Température : 19.4 °C
Humidité : 57 %
Point de rosée : 11.7 °C
Vent moyen : 2 km/h
Windchill : 19.4
Pression atm. : 1007 hPa
Maxima :

Température : 23.1 °C
Humidité : 91 %
Point de rosée : 18.3 °C
Vent moyen : 10 km/h
Windchill : 23.3
Pression atm. : 1012 hPa
Rafales max : 40 km/h
Cumul de pluie sur 24H : 2.2 mm

Culan est une commune du département Cher (18).
La station météorologique du réseau de l'association la plus proche de Culan est celle de Beddes



Icône Facebook Association Météo Centre Icône Twitter Association Météo Centre Icône Chaîne Youtube Association Météo Centre Icône contact Association Météo Centre Icône Insta Association Météo Centre